ARIANE 2 DEB, 27046

Orbit data source: Space-Track

ARIANE 2 DEB, 27046 is space debris in HEO originally from a launch on Fri, 27 Jan 1989 UTC launched from the French Guiana (FRGUI). Debris objects in space refer to the collection of defunct objects orbiting the Earth. Examples of debris include non-operational satellites, rocket bodies, and fragments generated from explosions, collisions, or faulty payload assembly.

Loading next visibility...
Identifier
27046, 1989-006AB
Orbit
HEO
Country
Flag of FRFR
Related business
Manufacturer
EADS/LV
Mission
Spacecraft
Bus & Motor
Unknown
Mass
Unknown
Launch date (UTC)
1989-01-27 (37 years ago)
Launch vehicle
Unknown
Launch site
French Guiana (FRGUI)
Object type
Payload
Rocket body
Debris
Shape & HBR
Unknown shape, 0.6 m
Radar Cross Section
Medium (>0.1 m² and <1 m²)

Expand to show TLE details & history
Last TLE update: 4 days ago

TLE from 4 days ago
0 ARIANE 2 DEB
1 27046U 89006AB  26170.65423201 -.00000040  00000-0  63063-2 0  9996
2 27046   8.3971 353.2346 7093469 257.2813  28.2187  2.24260330111813
Epoch: 2026-06-19T15:42Z
TLE epoch observation values (Epoch: 2026-06-19T15:42:05.645Z)
Latitude
1.67469°
Longitude
-138.73262°
Altitude
10,872.683 km
Speed
5.481 km/s
True Right ascension
00h 18m 41s
True Declination
1° 40' 14"
Sunlit
Object was in daylight at epoch
Visualization orbit readout
Latitude
Unknown
Longitude
Unknown
Altitude
Unknown
Speed
Unknown
Apparent Right ascension
Unknown
Apparent Declination
Unknown
Sunlit
N/A
Visualization observer readout
Local Sidereal Time
15:40:53
Azimuth
Unknown
Elevation
Unknown
Doppler factor
Unknown
Orbital elements
Apogee altitude
35,773.812 km
Perigee altitude
789.276 km
Semi-major axis
24,659.681 km
Eccentricity
0.70935
Inclination
8.3971°
RAAN
353.2346°
Arg. of periapsis
257.2813°
True anomaly
114.24917°
Mean anomaly
28.2187°
Eccentric anomaly
65.0762°
Mean motion
0.56048 °/min
Orbital period
642.3 mins
BSTAR
0.0063063
Loading maneuver chart data...
Computing Atmospheric mass density...
Loading historical data...
Loading historical data...
Loading historical data...
Loading historical data...
Loading historical data...
Loading historical data...
Loading historical data...

Documentation

Showing up to 5 results
|